Medicine Lodge, KS

4:53 AM CST on December 06, 2019 (GMT -0600)
Medicine Lodge

Weather History for KP28 - November, 2019

Change the Weather History Date:

Tuesday, November 12, 2019

  Actual Average Record
Temperature  
Mean Temperature 19 °F 47 °F  
Max Temperature 34 °F 60 °F 83 °F (1910)
Min Temperature 4 °F 34 °F 4 °F (2019)
Degree Days  
Heating Degree Days 46 18  
Month to date heating degree days 292 185  
Since 1 July heating degree days 683 454  
Cooling Degree Days 0 0  
Month to date cooling degree days 0 0  
Year to date cooling degree days 1837 1769  
Moisture  
Dew Point 7 °F    
Average Humidity 62    
Maximum Humidity 91    
Minimum Humidity 32    
Precipitation  
Precipitation 0.00 in 0.03 in 2.60 in (2010)
Month to date precipitation 0.00 0.53  
Year to date precipitation 30.37 25.82  
Snow  
Snow 0.00 in 0.00 in - ()
Month to date snowfall 0.0 0.0  
Since 1 July snowfall T 0.0  
Since 1 September snowfall T 0.0  
Snow Depth 0.00 in    
Sea Level Pressure  
Sea Level Pressure 30.56 in    
Wind  
Wind Speed 8 mph (South)    
Max Wind Speed 20 mph    
Max Gust Speed 26 mph    
T = Trace of Precipitation, MM = Missing Value Source: NWS Daily Summary

Daily Weather History Graph

Daily Weather History Graph

Search for Another Location

Airport or City:

Astronomy

Nov. 12, 2019 Rise Set
Actual Time 7:10 AM CST 5:26 PM CST
Civil Twilight 6:42 AM CST 5:53 PM CST
Nautical Twilight 6:11 AM CST 6:25 PM CST
Astronomical Twilight 5:40 AM CST 6:55 PM CST
Moon 5:53 PM CST (11/12) 7:04 AM CST (11/12)
Length of Visible Light 11h 11m
Length of Day
10h 16m
Full, 100% of the Moon is Illuminated
Nov 12
Full
Nov 19
Last Quarter
Nov 26
New
Dec 4
First Quarter
Dec 11
Full

Hourly Weather History & Observations

Time (CST) Temp. Windchill Dew Point Humidity Pressure Visibility Wind Dir Wind Speed Gust Speed Precip Events Conditions
12:56 AM 8.1 °F -0.5 °F 3.0 °F 80% 30.79 in - North 4.6 mph - N/A   Unknown
1:56 AM 7.0 °F 0.1 °F 3.0 °F 84% 30.79 in - NNW 3.5 mph - N/A   Unknown
2:56 AM 9.0 °F - 3.9 °F 80% 30.79 in - Calm Calm - N/A   Unknown
3:56 AM 8.1 °F 1.4 °F 3.9 °F 83% 30.76 in - West 3.5 mph - N/A   Unknown
4:56 AM 6.1 °F - 3.0 °F 87% 30.74 in - Calm Calm - N/A   Unknown
5:56 AM 6.1 °F - 3.0 °F 87% 30.73 in - Calm Calm - N/A   Unknown
6:56 AM 3.9 °F -5.3 °F 1.0 °F 88% 30.72 in - NNE 4.6 mph - N/A   Unknown
7:56 AM 8.1 °F - 5.0 °F 87% 30.73 in - Calm Calm - N/A   Unknown
8:56 AM 14.0 °F - 7.0 °F 74% 30.72 in - Calm Calm - N/A   Unknown
9:56 AM 19.9 °F 11.1 °F 7.0 °F 57% 30.69 in - South 6.9 mph - N/A   Unknown
10:56 AM 23.0 °F 13.1 °F 8.1 °F 53% 30.65 in - South 9.2 mph - N/A   Unknown
12:56 PM 30.0 °F 19.5 °F 6.1 °F 36% 30.56 in - South 13.8 mph 21.9 mph N/A   Unknown
1:56 PM 30.9 °F 20.7 °F 7.0 °F 37% 30.49 in - South 13.8 mph - N/A   Unknown
2:56 PM 33.1 °F 22.6 °F 8.1 °F 35% 30.42 in - South 16.1 mph - N/A   Unknown
3:56 PM 33.1 °F 23.0 °F 7.0 °F 34% 30.40 in - South 15.0 mph 23.0 mph N/A   Unknown
4:56 PM 32.0 °F 23.0 °F 9.0 °F 38% 30.38 in - SSE 11.5 mph 20.7 mph N/A   Unknown
5:56 PM 28.9 °F 19.8 °F 9.0 °F 43% 30.37 in - SSE 10.4 mph - N/A   Unknown
8:56 PM 26.1 °F 15.6 °F 10.9 °F 53% 30.29 in - SSE 11.5 mph 21.9 mph N/A   Unknown
9:56 PM 24.1 °F 13.7 °F 10.9 °F 57% 30.27 in - SSE 10.4 mph - N/A   Unknown
10:56 PM 24.1 °F 14.4 °F 10.9 °F 57% 30.23 in - SSE 9.2 mph - N/A   Unknown
11:56 PM 23.0 °F 13.9 °F 10.9 °F 60% 30.19 in - SSE 8.1 mph - N/A   Unknown